Home   Weather   Nairobi   Past weeks

Flag for Kenya Past Weather in Nairobi, Kenya — Yesterday and Last 2 Weeks

Now
63 °F

Scattered clouds.


Feels Like: 63 °F
Forecast: 59 / 75 °F
Wind: No wind

Location: Nairobi / Wilson

Current Time: Aug 18, 2017 at 9:45:41 am

Latest Report: Aug 18, 2017 at 8:00 am


Visibility: N/A

Pressure: 30.18 "Hg (24.76 "Hg at 1680m altitude)

Humidity: 83%

Dew Point: 57 °F

Location of NairobiLocation

Past Weather in Nairobi — Graph

°F

Nairobi Temperature Yesterday

Maximum temperature yesterday: 79 °F (at 3:00 pm)
Minimum temperature yesterday: 61 °F (at 7:00 am)
Average temperature yesterday: 70 °F

High & Low Weather Summary for the Past Weeks

 TemperatureHumidityPressure
High79 °F (Aug 17, 3:00 pm)94% (Aug 3, 9:00 am)30.33 "Hg (Aug 3, 9:00 am)
Low55 °F (Aug 5, 5:00 am)34% (Aug 17, 5:00 pm)30.04 "Hg (Aug 17, 4:00 pm)
Average66 °F66%30.19 "Hg
* Reported Aug 3 9:00 am — Aug 18 8:00 am, Nairobi. Weather by CustomWeather, © 2017

Note: Actual official high and low records may vary slightly from our data, if they occured in-between our weather recording intervals... More about our weather records

Advertising

Nairobi Weather History for the Previous 24 Hours

Scroll right to see more
 ConditionsComfort  
Time TempWeatherWind HumidityBarometerVisibility
8:00 am
Fri, Aug 18
63 °FScattered clouds.No wind83%30.18 "HgN/A
6:00 am61 °FPassing clouds.No wind88%30.15 "HgN/A
5:00 am61 °FPassing clouds.No wind88%30.15 "HgN/A
4:00 am61 °FPassing clouds.No wind88%30.15 "HgN/A
2:00 am64 °FPassing clouds.6 mph68%30.15 "HgN/A
1:00 am64 °FPassing clouds.No wind68%30.15 "HgN/A
12:00 am64 °FPassing clouds.3 mph68%30.15 "HgN/A
11:00 pm
Thu, Aug 17
68 °FPassing clouds.8 mph53%30.15 "HgN/A
10:00 pm70 °FPassing clouds.7 mph50%30.15 "HgN/A
9:00 pm70 °FPassing clouds.15 mph50%30.09 "HgN/A
8:00 pm72 °FPassing clouds.10 mph47%30.09 "HgN/A
7:00 pm73 °FPassing clouds.12 mph44%30.09 "HgN/A
6:00 pm77 °FScattered clouds.22 mph36%30.07 "HgN/A
5:00 pm79 °FScattered clouds.18 mph34%30.07 "HgN/A
4:00 pm79 °FScattered clouds.17 mph37%30.04 "HgN/A
3:00 pm79 °FScattered clouds.14 mph37%30.07 "HgN/A
2:00 pm77 °FScattered clouds.20 mph39%30.09 "HgN/A
1:00 pm75 °FScattered clouds.8 mph44%30.12 "HgN/A
12:00 pm70 °FPartly sunny.9 mph57%30.15 "HgN/A
11:00 am63 °FPartly sunny.8 mph83%30.18 "HgN/A
10:00 am63 °FPartly sunny.6 mph83%30.18 "HgN/A
9:00 am61 °FPartly sunny.3 mph88%30.15 "HgN/A
Weather by CustomWeather, © 2017

See weather overviewHow to use our weather pages